Powrót do katalogu

O3B FM11

AktywnyŁącznośćMEO
NORAD 40349·PAYLOAD·🇱🇺 Luxembourg

Wystrzelony Dec 18, 2014 z Guiana Space Centre

Loading…

Następne Przeloty (najbliższe 24 godziny)

TLE

ŚwieżeSource: CelesTrak SupGP

Epoka: Sep 13, 2026, 16:00 UTC

1 40349C 14083B   26256.66666667  .00000000  00000+0  00000+0 0  2560
2 40349   0.0541 348.4972 0002205 169.0472 100.0023  5.00115658    15

Śledź O3B FM11 w czasie rzeczywistym z AllMySat

Download on the App Store